User: anonymous   Login
Location: Antioch Church
(34.9543°N, 88.5145°W)
Time: 13:54:52
(UTC+00:00)
Language:

Cosmos 1869 Rocket - Orbit

View from above orbital plane
View from above orbital plane
View from above satellite
View from above satellite

Ground track
Ground track

The orbit data is extracted from the following two-line orbital elements,

1 18215U 87062B   20052.61427235 +.00000084 +00000-0 +73219-5 0  9998
2 18215 082.5099 085.5927 0021615 135.1896 016.5929 14.83209928740050
Epoch (UTC): 21 February 2020 14:44:33
Eccentricity: 0.0021615
inclination: 82.5099°
perigee height: 604 km
apogee height: 634 km
right ascension of ascending node: 85.5927°
argument of perigee: 135.1896°
revolutions per day: 14.83209928
mean anomaly at epoch: 16.5929°
orbit number at epoch: 74005

The dashed part of the orbit path shows where the satellite is in the earth's shadow,  

DLR